Location: Newark
(41.0400°S, 62.7845°W)
Time: 16:37:21
(UTC+00:00)

Vanguard 2 Rocket - Pass Details

Date: 29 November 2021
Orbit: 553 x 3325 km, 32.9° (Epoch: 23 January)

Event Time Altitude Azimuth Distance (km) Brightness Sun altitude
Rises 13:12:00 0° 280° (W) 6,023 10.7 49.8°
Reaches altitude 10° 13:16:47 10° 283° (WNW) 4,560 10.2 50.6°
Maximum altitude 13:27:36 49° 353° (N) 1,659 9.0 52.6°
Drops below altitude 10° 13:33:49 10° 67° (ENE) 2,668 10.1 53.7°
Sets 13:35:55 0° 73° (ENE) 3,385 10.4 54.0°
